Volver al catálogo

NUSAT-44 MARIA MITCHELL

ActivoCienciaSSO
NORAD 59122·PAYLOAD·🇦🇷 Argentina

Lanzado Mar 4, 2024 desde Vandenberg Space Force Base

Loading…

Próximos Pases (próximas 24 horas)

TLE

ActualizadoSource: Space-Track

Época: Sep 14, 2026, 22:39 UTC

1 59122U 24043AA  26257.94408505  .00010329  00000-0  36129-3 0  9998
2 59122  97.5575  39.6341 0004005 277.3113  82.7672 15.29717877140997

Sigue NUSAT-44 MARIA MITCHELL en tiempo real con AllMySat

Download on the App Store